When you browse on this site, cookies collect data to enhance your experience and personalize the content and advertising you see.
Visit our Privacy Policy to learn more. By continuing to use the site, you agree to this use of cookies and data.
  • In Lithuania
  • List of Countries
  • For 7 days
  • Water Temperature
  • Satellite Maps
  • Weather Map
  • Weather Widgets
  • user-avatar
    Login

    Hourly Weather Voronino-Yaya

    Today, 19 December, Wednesday

    Time Temperature Precipitation Wind Pressure Humidity
    00:00 -12°C° 0 mm 6 mps 749 mmHg 89%
    01:00 -12°C° 0.1 mm 6 mps 749 mmHg 89%
    02:00 -12°C° 0.1 mm 6 mps 749 mmHg 89%
    03:00 -11°C° 0.1 mm 6 mps 748 mmHg 89%
    04:00 -11°C° 0.2 mm 6 mps 748 mmHg 89%
    05:00 -12°C° 0.2 mm 6 mps 747 mmHg 88%
    06:00 -12°C° 0 mm 6 mps 747 mmHg 88%
    07:00 -12°C° 0.2 mm 6 mps 746 mmHg 89%
    08:00 -14°C° 0.2 mm 6 mps 746 mmHg 89%
    09:00 -14°C° 0.2 mm 6 mps 745 mmHg 89%
    10:00 -14°C° 0.4 mm 6 mps 745 mmHg 89%
    11:00 -12°C° 0.4 mm 6 mps 745 mmHg 89%
    12:00 -12°C° 0 mm 6 mps 745 mmHg 89%
    13:00 -12°C° 0.2 mm 6 mps 744 mmHg 89%
    14:00 -12°C° 0.2 mm 6 mps 744 mmHg 89%
    15:00 -11°C° 0.2 mm 5 mps 744 mmHg 89%
    16:00 -11°C° 0.2 mm 5 mps 744 mmHg 89%
    17:00 -11°C° 0.2 mm 5 mps 744 mmHg 90%
    18:00 -10°C° 0.2 mm 4 mps 744 mmHg 91%
    19:00 -11°C° 0.2 mm 4 mps 745 mmHg 91%
    20:00 -11°C° 0.2 mm 4 mps 745 mmHg 91%
    21:00 -11°C° 0.2 mm 4 mps 745 mmHg 92%
    22:00 -14°C° 0.1 mm 4 mps 746 mmHg 91%
    23:00 -15°C° 0.1 mm 4 mps 746 mmHg 91%

    Tomorrow, 20 December, Thursday

    Time Temperature Precipitation Wind Pressure Humidity
    00:00 -16°C° 0.1 mm 4 mps 747 mmHg 91%
    01:00 -18°C° 0 mm 4 mps 748 mmHg 91%
    02:00 -22°C° 0 mm 4 mps 748 mmHg 92%
    03:00 -24°C° 0 mm 4 mps 749 mmHg 92%
    04:00 -26°C° 0 mm 4 mps 750 mmHg 93%
    05:00 -29°C° 0 mm 4 mps 751 mmHg 94%
    06:00 -30°C° 0 mm 3 mps 752 mmHg 94%
    07:00 -32°C° 0 mm 3 mps 753 mmHg 94%
    08:00 -33°C° 0 mm 3 mps 754 mmHg 95%
    09:00 -34°C° 0 mm 3 mps 755 mmHg 95%
    10:00 -34°C° 0 mm 3 mps 756 mmHg 94%
    11:00 -33°C° 0 mm 3 mps 757 mmHg 94%
    12:00 -34°C° 0 mm 4 mps 757 mmHg 93%
    13:00 -34°C° 0 mm 4 mps 758 mmHg 93%
    14:00 -34°C° 0 mm 4 mps 758 mmHg 93%
    15:00 -33°C° 0 mm 4 mps 759 mmHg 93%
    16:00 -34°C° 0 mm 4 mps 759 mmHg 93%
    17:00 -34°C° 0 mm 4 mps 760 mmHg 93%
    18:00 -34°C° 0 mm 4 mps 761 mmHg 94%
    19:00 -34°C° 0 mm 4 mps 761 mmHg 94%
    20:00 -34°C° 0 mm 4 mps 762 mmHg 94%
    21:00 -33°C° 0 mm 4 mps 762 mmHg 94%
    22:00 -33°C° 0 mm 4 mps 762 mmHg 94%
    23:00 -33°C° 0 mm 4 mps 763 mmHg 94%

    Day after tomorrow, 21 December, Friday

    Time Temperature Precipitation Wind Pressure Humidity
    00:00 -33°C° 0 mm 4 mps 763 mmHg 94%
    01:00 -33°C° 0 mm 4 mps 763 mmHg 94%
    02:00 -32°C° 0 mm 4 mps 763 mmHg 94%
    03:00 -32°C° 0 mm 4 mps 763 mmHg 94%
    04:00 -32°C° 0.1 mm 5 mps 763 mmHg 94%
    05:00 -31°C° 0.1 mm 5 mps 762 mmHg 94%
    06:00 -30°C° 0.1 mm 6 mps 762 mmHg 93%
    07:00 -28°C° 0.2 mm 6 mps 761 mmHg 92%
    08:00 -27°C° 0.2 mm 6 mps 761 mmHg 92%
    09:00 -26°C° 0.2 mm 7 mps 760 mmHg 91%
    10:00 -24°C° 0.2 mm 7 mps 759 mmHg 90%
    11:00 -21°C° 0.2 mm 7 mps 759 mmHg 89%
    12:00 -19°C° 0.2 mm 8 mps 759 mmHg 88%
    13:00 -19°C° 0.2 mm 8 mps 758 mmHg 87%
    14:00 -19°C° 0.2 mm 8 mps 758 mmHg 87%
    15:00 -19°C° 0.2 mm 8 mps 757 mmHg 87%
    16:00 -19°C° 0.2 mm 8 mps 757 mmHg 87%
    17:00 -19°C° 0.2 mm 8 mps 757 mmHg 87%
    18:00 -19°C° 0.2 mm 8 mps 757 mmHg 86%
    19:00 -19°C° 0.2 mm 8 mps 757 mmHg 86%
    20:00 -19°C° 0.2 mm 8 mps 756 mmHg 86%
    21:00 -19°C° 0.2 mm 8 mps 756 mmHg 86%
    22:00 -19°C° 0.2 mm 8 mps 755 mmHg 86%
    23:00 -19°C° 0.2 mm 8 mps 755 mmHg 86%

    22 December, Saturday

    Time Temperature Precipitation Wind Pressure Humidity
    00:00 -19°C° 0.2 mm 7 mps 754 mmHg 86%
    01:00 -19°C° 0.2 mm 7 mps 754 mmHg 87%
    02:00 -20°C° 0.2 mm 7 mps 754 mmHg 87%
    03:00 -20°C° 0.2 mm 7 mps 754 mmHg 87%
    04:00 -20°C° 0.2 mm 7 mps 753 mmHg 88%
    05:00 -20°C° 0.2 mm 7 mps 753 mmHg 88%
    06:00 -21°C° 0.2 mm 6 mps 753 mmHg 88%
    07:00 -21°C° 0.2 mm 6 mps 753 mmHg 89%
    08:00 -21°C° 0.2 mm 6 mps 753 mmHg 89%
    09:00 -21°C° 0.2 mm 6 mps 753 mmHg 89%
    10:00 -21°C° 0.2 mm 6 mps 754 mmHg 90%
    11:00 -21°C° 0.2 mm 6 mps 754 mmHg 90%
    12:00 -20°C° 0.2 mm 5 mps 754 mmHg 90%
    13:00 -20°C° 0.2 mm 5 mps 754 mmHg 90%
    14:00 -20°C° 0.2 mm 5 mps 754 mmHg 90%
    15:00 -19°C° 0.2 mm 4 mps 754 mmHg 91%
    16:00 -20°C° 0.2 mm 4 mps 754 mmHg 91%
    17:00 -20°C° 0.2 mm 4 mps 755 mmHg 92%
    18:00 -19°C° 0.2 mm 3 mps 755 mmHg 93%
    19:00 -19°C° 0.2 mm 3 mps 755 mmHg 93%
    20:00 -21°C° 0.2 mm 3 mps 756 mmHg 94%
    21:00 -21°C° 0.2 mm 3 mps 756 mmHg 94%
    22:00 -20°C° 0.2 mm 2 mps 756 mmHg 95%
    23:00 -20°C° 0.2 mm 2 mps 757 mmHg 95%

    23 December, Sunday

    Time Temperature Precipitation Wind Pressure Humidity
    00:00 -21°C° 0.2 mm 2 mps 757 mmHg 96%
    01:00 -23°C° 0.1 mm 2 mps 757 mmHg 96%
    02:00 -24°C° 0.1 mm 2 mps 758 mmHg 96%
    03:00 -25°C° 0.1 mm 2 mps 758 mmHg 96%
    04:00 -27°C° 0.1 mm 2 mps 759 mmHg 95%
    05:00 -28°C° 0.1 mm 2 mps 759 mmHg 94%
    06:00 -32°C° 0.1 mm 3 mps 759 mmHg 93%
    07:00 -34°C° 0 mm 3 mps 760 mmHg 92%
    08:00 -36°C° 0 mm 3 mps 761 mmHg 91%
    09:00 -38°C° 0 mm 3 mps 761 mmHg 90%
    10:00 -38°C° 0 mm 3 mps 762 mmHg 89%
    11:00 -38°C° 0 mm 3 mps 762 mmHg 89%
    12:00 -38°C° 0 mm 3 mps 763 mmHg 88%
    13:00 -38°C° 0 mm 3 mps 763 mmHg 89%
    14:00 -39°C° 0 mm 3 mps 764 mmHg 89%
    15:00 -39°C° 0 mm 3 mps 764 mmHg 90%
    16:00 -40°C° 0 mm 3 mps 765 mmHg 90%
    17:00 -41°C° 0 mm 3 mps 766 mmHg 90%
    18:00 -41°C° 0 mm 3 mps 767 mmHg 91%
    19:00 -40°C° 0 mm 2 mps 767 mmHg 91%
    20:00 -40°C° 0 mm 2 mps 768 mmHg 91%
    21:00 -41°C° 0 mm 2 mps 769 mmHg 91%
    22:00 -41°C° 0 mm 2 mps 769 mmHg 90%
    23:00 -41°C° 0 mm 2 mps 770 mmHg 90%

    24 December, Monday

    Time Temperature Precipitation Wind Pressure Humidity
    00:00 -41°C° 0 mm 2 mps 770 mmHg 89%
    01:00 -41°C° 0 mm 2 mps 771 mmHg 89%
    02:00 -41°C° 0 mm 2 mps 771 mmHg 88%
    03:00 -41°C° 0 mm 2 mps 772 mmHg 87%
    04:00 -41°C° 0 mm 2 mps 772 mmHg 87%
    05:00 -38°C° 0 mm 1 mps 773 mmHg 86%
    06:00 -38°C° 0 mm 1 mps 773 mmHg 86%
    07:00 -38°C° 0 mm 1 mps 774 mmHg 85%
    08:00 -38°C° 0 mm 1 mps 774 mmHg 85%
    09:00 -38°C° 0 mm 1 mps 775 mmHg 84%
    10:00 -36°C° 0 mm 1 mps 775 mmHg 84%
    11:00 -34°C° 0 mm 1 mps 775 mmHg 84%
    12:00 -33°C° 0 mm 1 mps 775 mmHg 84%
    13:00 -33°C° 0 mm 1 mps 775 mmHg 85%
    14:00 -33°C° 0 mm 1 mps 775 mmHg 86%
    15:00 -33°C° 0 mm 1 mps 776 mmHg 86%
    16:00 -34°C° 0 mm 1 mps 776 mmHg 86%
    17:00 -34°C° 0 mm 1 mps 776 mmHg 85%
    18:00 -35°C° 0 mm 1 mps 776 mmHg 84%
    19:00 -35°C° 0 mm 1 mps 776 mmHg 84%
    20:00 -35°C° 0 mm 1 mps 776 mmHg 84%
    21:00 -35°C° 0 mm 1 mps 776 mmHg 84%
    22:00 -35°C° 0 mm 1 mps 776 mmHg 84%
    23:00 -35°C° 0 mm 1 mps 776 mmHg 84%
    Show more